Wind_Speed
21 22 23 23 23 24 25 25 24 24 25 25 25 24 22 22 22 23 23 23 22 23 23 23 23 24 24 24 24 24 24 24 24 25 26 25 25 25 25 25 25 25 27
16 17 17 17 18 18 18 18 17 17 19 20 20 19 19 20 21 21 20 20 21 22 22 23 23 23 23 23 23 24 24 24 24 24 25 25 24 25 25 26 25 25 26
10 11 11 10 10 10 10 11 10 12 13 15 15 16 17 17 17 17 17 18 19 20 21 22 23 23 23 23 23 23 23 23 24 24 24 25 25 24 24 24 24 24 24
5 6 6 6 6 6 7 7 7 8 9 10 12 12 13 13 13 14 16 17 18 19 20 21 21 22 22 22 22 23 23 23 23 23 23 24 24 24 24 23 24 24 24
4 5 4 5 4 4 4 4 5 6 7 8 9 11 12 13 13 15 16 16 17 18 19 19 20 20 21 21 21 21 21 22 22 23 23 22 23 23 23 23 23 23 24
6 6 5 5 5 5 5 5 6 7 8 9 10 11 13 14 15 15 16 16 17 17 18 19 19 19 20 20 20 21 21 22 22 22 22 22 22 22 22 22 22 22 22
7 6 6 6 6 6 7 8 9 9 10 11 11 12 13 13 14 15 16 17 17 18 18 19 19 19 19 19 19 20 20 21 21 21 21 21 21 21 21 22 22 22 22
9 9 8 8 8 9 10 10 10 11 11 12 13 14 14 14 15 16 16 16 17 17 17 18 18 19 18 19 19 19 19 19 19 19 20 20 21 21 21 21 21 20 20
12 12 11 11 11 11 11 11 12 12 13 13 14 14 15 15 16 16 16 17 17 16 16 16 16 17 17 17 17 17 17 17 17 18 18 19 19 19 19 19 19 19 20
14 13 13 13 13 13 13 13 13 13 13 14 14 15 15 15 15 16 16 17 17 16 16 15 15 15 15 16 15 15 16 16 16 16 17 17 17 18 18 18 18 18 18
15 15 14 14 13 13 13 13 13 13 13 13 14 14 15 15 15 15 15 16 16 16 15 15 14 14 14 14 14 14 15 15 15 15 16 16 16 16 16 16 17 17 17
16 15 15 14 13 13 13 12 12 12 12 12 12 12 13 13 13 14 14 15 15 15 14 13 13 13 12 13 13 13 14 14 14 14 14 14 14 15 15 15 16 16 16
16 16 15 15 13 13 12 11 11 11 11 10 10 10 10 10 10 11 11 12 12 12 12 12 12 12 11 12 12 13 13 13 13 13 13 13 13 13 14 14 15 15 16
17 17 16 15 14 13 13 12 12 11 10 9 8 7 7 7 7 7 8 8 9 9 10 10 10 10 10 10 11 11 11 11 11 11 11 12 12 12 13 13 14 14 15
18 18 17 17 16 15 14 13 13 12 11 9 8 7 6 5 4 4 4 4 5 6 6 6 7 7 7 8 8 9 9 9 9 9 9 10 10 11 12 12 13 14 14
19 19 19 18 17 17 16 15 15 14 13 12 10 9 8 6 5 4 2 1 1 1 2 3 3 3 4 4 5 5 5 5 6 7 8 8 9 10 10 11 12 13 14
19 19 19 18 18 18 17 17 16 16 15 14 13 12 11 9 8 7 7 6 4 3 2 2 1 1 0 1 1 2 3 4 4 5 6 7 8 9 10 11 12 13 13
19 19 19 19 18 18 18 17 17 17 16 16 16 15 14 13 11 10 9 9 8 7 5 5 4 3 3 2 2 2 2 3 3 4 5 7 8 9 9 10 11 12 13
19 19 19 19 18 18 18 18 17 17 17 16 16 16 15 15 14 13 12 11 10 9 8 8 7 6 6 5 5 4 4 5 5 5 6 7 8 9 9 10 11 12 14
18 18 18 18 18 17 17 17 17 17 17 16 16 16 16 15 15 15 14 14 13 12 10 10 9 8 8 7 7 7 7 7 7 7 7 8 9 9 10 11 13 14 15
17 17 18 18 18 17 17 16 16 16 16 16 16 16 15 15 15 15 15 14 14 13 12 11 11 10 10 9 9 9 8 8 8 8 9 9 10 11 12 13 14 15 16
15 16 16 17 17 17 17 16 16 16 15 15 15 15 15 15 15 15 15 14 14 13 13 12 12 11 11 10 10 10 9 9 9 9 10 10 11 12 13 14 15 16 18
13 14 15 15 16 16 16 16 16 15 15 15 15 14 14 14 14 14 14 14 14 13 13 13 12 12 11 11 10 10 10 10 10 10 11 11 12 13 14 15 16 17 18
11 12 13 13 14 14 15 15 14 14 14 14 13 13 13 13 12 12 12 12 12 12 12 12 12 12 11 11 11 11 11 11 11 11 12 12 13 13 14 15 16 17 19
9 10 10 11 11 12 13 13 13 13 12 12 12 12 12 11 11 11 11 11 11 11 11 11 11 11 11 11 11 11 11 12 12 12 12 13 13 14 15 16 17 18 19
8 8 9 9 9 10 11 11 11 11 11 10 10 10 10 10 10 10 10 10 10 10 10 10 11 11 11 11 11 11 11 11 12 12 13 13 14 15 15 16 17 18 19
Wind_Direction
268 269 268 268 268 267 265 263 264 262 262 259 257 251 247 247 246 243 241 244 247 250 253 256 260 263 266 269 271 273 274 276 276 276 277 277 276 275 276 274 272 269 265
267 267 267 267 263 261 260 258 260 258 256 252 251 246 245 242 240 240 242 245 249 251 254 258 261 264 266 268 271 273 274 275 276 277 277 277 277 277 276 275 274 271 267
267 266 262 261 258 259 261 259 255 249 249 244 243 240 235 236 237 241 245 250 253 255 258 261 264 265 267 268 270 272 273 274 276 277 278 279 279 278 278 276 275 272 268
289 276 269 270 270 265 264 258 250 250 248 245 242 241 240 242 246 249 252 255 258 260 263 265 266 267 267 268 270 271 272 274 276 278 278 280 281 280 279 279 276 274 271
340 327 306 290 289 286 282 279 271 266 259 254 255 255 253 254 257 260 261 262 263 265 266 266 267 268 268 269 270 272 272 273 276 278 279 281 282 281 280 279 277 276 273
352 337 334 331 323 314 307 296 288 282 275 270 266 264 262 261 262 264 265 266 265 267 267 266 267 269 269 269 270 272 274 275 276 279 279 281 282 283 281 280 280 276 275
357 347 332 323 315 306 299 296 292 283 276 272 269 269 268 266 265 264 264 266 267 268 267 267 268 270 270 270 271 273 274 275 276 278 279 281 283 282 282 283 283 279 274
352 344 333 323 314 309 305 300 294 286 282 277 274 272 271 269 268 267 267 267 268 269 270 271 270 269 270 271 272 273 274 276 277 279 280 281 282 283 281 282 282 281 280
350 343 336 329 322 314 307 301 295 290 285 281 278 276 274 272 272 270 268 268 268 270 271 273 271 268 268 269 270 271 275 278 279 282 283 281 282 282 283 284 283 281 281
348 343 337 332 326 320 313 306 301 295 288 284 280 278 276 274 273 270 268 267 267 268 269 270 271 271 270 271 271 273 277 280 281 282 283 282 282 283 283 286 286 284 282
352 348 344 338 332 327 321 315 309 303 297 291 286 282 279 276 274 271 268 265 265 265 266 268 269 269 270 271 273 276 277 279 281 284 284 284 284 284 285 286 288 290 287
358 356 353 349 343 337 332 327 322 315 308 301 295 290 284 280 276 272 267 263 263 264 264 264 263 264 266 268 271 275 277 279 282 284 286 286 286 286 286 287 289 290 291
6 5 3 0 357 353 349 345 340 334 327 319 311 304 296 287 280 273 268 265 262 260 259 258 258 261 264 266 270 273 278 282 284 285 285 287 288 289 290 291 292 292 292
14 12 11 11 10 8 6 1 357 353 349 343 335 326 317 304 292 281 272 266 261 256 254 255 257 260 262 263 266 271 277 282 284 287 288 290 292 293 293 294 296 297 296
20 21 21 20 19 17 16 15 14 13 11 9 5 360 353 345 332 313 290 270 257 251 252 254 255 257 260 264 268 273 278 283 287 291 294 296 298 299 299 301 302 303 303
24 24 24 25 25 25 24 24 24 26 27 26 26 26 25 24 27 28 26 37 178 215 230 240 245 251 258 261 268 278 285 288 295 299 304 307 309 310 311 312 313 311 310
26 26 27 27 28 29 30 32 33 35 36 37 38 39 42 45 50 54 58 67 79 91 101 111 125 142 231 253 279 297 309 314 319 322 326 329 328 325 323 322 322 321 321
27 27 28 29 30 32 34 36 38 40 42 44 45 48 52 54 57 61 63 66 72 76 80 85 89 86 73 69 57 34 10 2 357 355 354 352 349 344 339 337 335 334 333
27 27 28 30 32 33 36 38 39 41 43 46 48 51 53 56 58 61 63 66 69 72 75 78 76 75 71 68 65 57 46 35 28 19 10 4 0 358 355 353 350 346 343
28 29 29 31 34 35 38 40 41 43 45 48 50 52 55 57 60 62 63 65 66 69 71 72 70 68 66 66 63 59 54 47 39 31 23 17 13 10 6 3 360 357 354
30 31 32 34 35 36 38 40 41 44 46 48 51 54 56 58 59 60 61 63 64 65 67 68 68 67 67 66 61 56 52 46 40 34 28 23 19 15 12 9 7 4 1
29 30 31 32 34 36 38 39 40 42 45 47 50 53 55 56 58 59 60 61 62 62 64 65 65 64 62 60 56 52 48 44 39 34 29 25 21 18 15 12 10 8 5
25 27 28 30 32 33 34 36 39 41 43 45 48 50 53 55 57 59 60 61 62 61 62 62 61 59 58 55 52 48 44 41 37 33 29 26 23 20 17 15 13 12 10
19 21 23 25 27 28 30 31 34 37 41 44 45 48 50 53 55 57 58 59 59 58 57 57 56 55 53 49 47 45 42 40 36 33 29 26 23 21 19 17 15 13 13
7 11 14 17 19 21 23 26 28 31 34 38 41 44 46 49 52 54 56 56 55 55 54 53 53 51 49 46 45 44 42 39 36 33 30 27 25 22 20 19 17 15 14
346 354 0 5 9 13 16 19 21 23 26 29 33 37 41 43 46 49 51 52 52 52 52 52 51 50 48 46 44 41 39 37 35 32 31 28 27 25 22 20 18 17 16
Height
5787 5788 5788 5789 5789 5790 5790 5791 5792 5792 5793 5795 5796 5798 5799 5801 5804 5806 5809 5811 5813 5815 5817 5819 5821 5822 5823 5824 5825 5825 5826 5826 5826 5826 5825 5825 5825 5825 5825 5825 5825 5826 5826
5783 5783 5784 5784 5785 5785 5785 5786 5787 5787 5789 5790 5792 5793 5795 5797 5799 5801 5803 5805 5807 5810 5812 5814 5815 5816 5817 5818 5819 5819 5819 5820 5820 5820 5819 5818 5818 5819 5819 5818 5818 5819 5819
5780 5780 5780 5780 5781 5782 5782 5782 5783 5784 5785 5786 5788 5789 5791 5793 5795 5797 5799 5801 5803 5804 5806 5808 5809 5810 5811 5812 5812 5813 5813 5814 5814 5813 5813 5812 5812 5812 5812 5812 5812 5812 5812
5778 5778 5778 5778 5779 5779 5779 5780 5781 5782 5783 5784 5785 5786 5788 5789 5791 5793 5795 5797 5798 5800 5801 5802 5803 5804 5805 5806 5806 5807 5807 5807 5807 5807 5807 5806 5806 5806 5806 5805 5805 5805 5806
5778 5778 5778 5777 5777 5778 5778 5779 5779 5780 5781 5782 5783 5784 5785 5787 5788 5789 5790 5792 5793 5795 5796 5797 5798 5799 5799 5800 5801 5801 5801 5801 5801 5801 5801 5801 5800 5800 5800 5799 5799 5799 5799
5778 5778 5777 5777 5777 5777 5777 5778 5778 5778 5779 5780 5780 5781 5782 5783 5784 5785 5786 5788 5788 5790 5791 5792 5793 5793 5794 5794 5795 5795 5795 5795 5795 5795 5795 5795 5794 5794 5794 5793 5793 5793 5793
5778 5778 5777 5777 5776 5776 5776 5776 5776 5776 5776 5777 5777 5778 5779 5779 5780 5781 5782 5783 5784 5785 5785 5787 5787 5788 5788 5789 5789 5789 5789 5789 5790 5790 5790 5789 5789 5788 5788 5787 5787 5786 5786
5778 5777 5776 5775 5775 5774 5773 5773 5773 5772 5772 5773 5773 5774 5774 5775 5776 5776 5777 5778 5779 5780 5781 5781 5782 5783 5783 5783 5784 5784 5784 5784 5784 5784 5784 5783 5783 5782 5782 5782 5781 5780 5780
5777 5776 5774 5773 5772 5771 5770 5770 5769 5769 5769 5769 5769 5769 5769 5770 5771 5771 5772 5773 5774 5775 5775 5776 5776 5777 5777 5778 5778 5779 5779 5779 5779 5778 5778 5778 5777 5777 5776 5776 5776 5775 5774
5776 5774 5772 5771 5769 5768 5767 5766 5765 5765 5764 5764 5764 5764 5764 5765 5765 5766 5767 5767 5769 5770 5771 5771 5772 5772 5772 5773 5773 5774 5774 5774 5774 5774 5773 5773 5772 5772 5771 5771 5770 5770 5769
5775 5773 5771 5769 5767 5765 5764 5762 5761 5760 5760 5759 5759 5759 5759 5759 5760 5760 5761 5762 5763 5764 5766 5767 5767 5768 5768 5768 5769 5769 5769 5769 5769 5769 5768 5768 5767 5767 5767 5766 5765 5765 5764
5774 5772 5770 5767 5765 5763 5761 5759 5758 5757 5756 5755 5754 5754 5754 5754 5754 5755 5756 5757 5758 5759 5761 5762 5762 5763 5764 5764 5764 5765 5765 5765 5764 5764 5764 5763 5763 5762 5762 5762 5761 5760 5759
5775 5772 5770 5767 5765 5762 5760 5758 5756 5754 5753 5751 5751 5750 5750 5750 5750 5750 5751 5752 5753 5754 5755 5757 5758 5759 5759 5760 5760 5761 5761 5761 5761 5760 5760 5759 5759 5758 5758 5757 5756 5756 5755
5777 5774 5771 5768 5765 5762 5760 5758 5755 5753 5751 5750 5749 5748 5747 5747 5747 5747 5747 5748 5749 5750 5751 5752 5753 5755 5755 5756 5757 5757 5757 5757 5757 5757 5756 5756 5755 5755 5754 5753 5753 5752 5751
5779 5775 5772 5769 5766 5764 5761 5758 5756 5753 5751 5749 5748 5747 5746 5745 5745 5744 5744 5745 5745 5747 5748 5749 5750 5751 5752 5753 5753 5754 5754 5754 5754 5754 5754 5753 5752 5752 5751 5750 5749 5748 5747
5781 5778 5775 5772 5769 5766 5763 5760 5757 5755 5753 5750 5749 5747 5746 5745 5744 5744 5744 5744 5744 5745 5746 5747 5748 5749 5750 5750 5751 5751 5752 5752 5752 5752 5751 5751 5750 5749 5748 5747 5746 5745 5743
5784 5781 5778 5775 5772 5769 5766 5763 5760 5758 5755 5753 5751 5749 5747 5746 5746 5745 5745 5744 5745 5745 5746 5747 5748 5748 5749 5749 5750 5750 5750 5750 5750 5750 5750 5749 5748 5747 5746 5745 5744 5742 5740
5788 5785 5782 5778 5776 5772 5770 5767 5764 5762 5759 5757 5754 5752 5750 5749 5748 5747 5747 5747 5747 5747 5747 5748 5748 5749 5749 5749 5750 5750 5750 5750 5750 5749 5749 5748 5747 5746 5745 5743 5742 5740 5738
5791 5788 5785 5782 5779 5776 5774 5771 5768 5766 5763 5761 5759 5757 5755 5753 5752 5751 5750 5750 5750 5749 5749 5750 5750 5750 5750 5750 5751 5751 5751 5750 5750 5750 5749 5748 5747 5746 5744 5742 5740 5738 5736
5794 5792 5789 5786 5783 5781 5778 5775 5773 5770 5768 5765 5763 5762 5760 5758 5757 5756 5755 5754 5753 5753 5753 5753 5753 5753 5752 5752 5752 5752 5752 5752 5751 5750 5750 5749 5747 5746 5744 5742 5740 5737 5734
5798 5795 5793 5790 5787 5785 5782 5780 5777 5775 5772 5770 5768 5766 5765 5763 5762 5761 5760 5759 5758 5757 5756 5756 5756 5756 5755 5755 5755 5754 5754 5753 5753 5752 5751 5749 5748 5746 5744 5742 5740 5737 5734
5802 5799 5797 5794 5791 5789 5786 5784 5781 5779 5777 5775 5773 5771 5770 5768 5767 5766 5764 5763 5762 5761 5761 5760 5760 5759 5759 5758 5758 5757 5756 5755 5754 5753 5752 5750 5749 5747 5745 5742 5740 5736 5733
5804 5802 5800 5798 5795 5793 5790 5788 5786 5783 5781 5779 5777 5776 5774 5773 5771 5770 5769 5768 5767 5766 5765 5764 5763 5763 5762 5761 5760 5759 5758 5757 5756 5755 5753 5751 5750 5747 5745 5743 5740 5737 5733
5807 5805 5803 5801 5798 5796 5794 5792 5789 5787 5785 5783 5781 5780 5778 5777 5775 5774 5773 5772 5771 5770 5769 5768 5767 5766 5765 5764 5763 5762 5760 5759 5758 5756 5754 5753 5751 5748 5746 5743 5740 5737 5733
5808 5806 5805 5803 5801 5799 5797 5795 5793 5791 5789 5787 5785 5783 5782 5780 5779 5778 5776 5775 5774 5773 5772 5771 5770 5769 5768 5767 5765 5764 5763 5761 5759 5758 5756 5754 5751 5749 5746 5744 5740 5737 5734
5808 5807 5805 5804 5802 5801 5799 5797 5795 5793 5791 5790 5788 5786 5785 5783 5782 5781 5779 5778 5777 5776 5775 5774 5773 5772 5770 5769 5768 5766 5765 5763 5761 5759 5757 5755 5752 5750 5747 5744 5741 5737 5734